| time (UTC) | temp C | wind direction | speed KPH | gust KPH | rain 1hr cm | rain 24hr cm | rain mn cm | humidity % | barometer mb |
| 20260506034003 | 13 | 0 | 0.0 | 0.0 | 0.00 | 0.00 | 0.00 | 89 | 1006.2 |
| 20260506033214 | 13 | 0 | 0.0 | 0.0 | 0.00 | 0.00 | 0.00 | 89 | 1006.2 |
| 20260506032003 | 13 | 0 | 0.0 | 0.0 | 0.00 | 0.00 | 0.00 | 88 | 1006.2 |
| 20260506031003 | 13 | 0 | 0.0 | 0.0 | 0.00 | 0.00 | 0.00 | 87 | 1006.2 |
| 20260506030003 | 13 | 0 | 0.0 | 0.0 | 0.00 | 0.00 | 0.00 | 86 | 1006.1 |
| 20260506025003 | 14 | 0 | 0.0 | 0.0 | 0.00 | 0.00 | 0.00 | 85 | 1006.1 |
| 20260506024003 | 15 | 0 | 0.0 | 0.0 | 0.00 | 0.00 | 0.00 | 84 | 1006.2 |
| 20260506023003 | 15 | 0 | 0.0 | 0.0 | 0.00 | 0.00 | 0.00 | 83 | 1006.2 |
| 20260506022003 | 15 | 0 | 0.0 | 0.0 | 0.00 | 0.00 | 0.00 | 82 | 1006.2 |
| 20260506021213 | 15 | 0 | 0.0 | 0.0 | 0.00 | 0.00 | 0.00 | 82 | 1006.1 |
| 20260506020003 | 16 | 0 | 0.0 | 0.0 | 0.00 | 0.00 | 0.00 | 80 | 1006.2 |
| 20260506015213 | 16 | 0 | 0.0 | 0.0 | 0.00 | 0.00 | 0.00 | 80 | 1006.2 |
| 20260506014003 | 17 | 0 | 0.0 | 0.0 | 0.00 | 0.00 | 0.00 | 79 | 1006.1 |
| 20260506013003 | 17 | 0 | 0.0 | 0.0 | 0.00 | 0.00 | 0.00 | 78 | 1006.0 |
| 20260506012003 | 17 | 0 | 0.0 | 0.0 | 0.00 | 0.00 | 0.00 | 76 | 1005.9 |
| 20260506011003 | 18 | 0 | 0.0 | 0.0 | 0.00 | 0.00 | 0.00 | 75 | 1005.7 |
| 20260506010003 | 18 | 0 | 0.0 | 0.0 | 0.00 | 0.00 | 0.00 | 74 | 1005.6 |
| 20260506005213 | 18 | 0 | 0.0 | 0.0 | 0.00 | 0.00 | 0.00 | 72 | 1005.4 |
| 20260506004003 | 19 | 0 | 0.0 | 0.0 | 0.00 | 0.00 | 0.00 | 70 | 1005.3 |
| 20260506003003 | 20 | 0 | 0.0 | 0.0 | 0.00 | 0.00 | 0.00 | 67 | 1005.2 |
| 20260506002213 | 20 | 0 | 0.0 | 0.0 | 0.00 | 0.00 | 0.00 | 67 | 1005.1 |
| 20260506001003 | 20 | 0 | 0.0 | 0.0 | 0.00 | 0.00 | 0.00 | 62 | 1005.1 |
| 20260506000003 | 21 | 0 | 0.0 | 0.0 | 0.00 | 0.00 | 0.00 | 66 | 1005.0 |
| 20260505235003 | 21 | 0 | 0.0 | 0.0 | 0.00 | 0.00 | 0.00 | 64 | 1004.8 |
| 20260505234003 | 22 | 0 | 0.0 | 0.0 | 0.00 | 0.00 | 0.00 | 63 | 1004.7 |
| 20260505233003 | 22 | 0 | 0.0 | 0.0 | 0.00 | 0.00 | 0.00 | 58 | 1004.5 |
| 20260505232212 | 22 | 59 | 0.0 | 1.6 | 0.00 | 0.00 | 0.00 | 58 | 1004.5 |
| 20260505231003 | 23 | 59 | 1.6 | 3.2 | 0.00 | 0.00 | 0.00 | 52 | 1004.5 |
| 20260505230003 | 23 | 59 | 1.6 | 3.2 | 0.00 | 0.00 | 0.00 | 52 | 1004.4 |
| 20260505225003 | 23 | 59 | 0.0 | 3.2 | 0.00 | 0.00 | 0.00 | 49 | 1004.4 |
| 20260505224214 | 23 | 59 | 1.6 | 4.8 | 0.00 | 0.00 | 0.00 | 49 | 1004.5 |
| 20260505223003 | 24 | 58 | 0.0 | 9.7 | 0.00 | 0.00 | 0.00 | 48 | 1004.4 |
| 20260505222003 | 24 | 113 | 0.0 | 3.2 | 0.00 | 0.00 | 0.00 | 48 | 1004.3 |
| 20260505221003 | 24 | 253 | 1.6 | 8.0 | 0.00 | 0.00 | 0.00 | 47 | 1004.2 |
| 20260505220003 | 24 | 85 | 1.6 | 8.0 | 0.00 | 0.00 | 0.00 | 46 | 1004.0 |
| 20260505215003 | 24 | 50 | 1.6 | 9.7 | 0.00 | 0.00 | 0.00 | 47 | 1004.0 |
| 20260505214003 | 24 | 23 | 1.6 | 4.8 | 0.00 | 0.00 | 0.00 | 47 | 1003.8 |
| 20260505213003 | 24 | 357 | 0.0 | 6.4 | 0.00 | 0.00 | 0.00 | 44 | 1003.9 |
| 20260505212003 | 25 | 43 | 1.6 | 12.9 | 0.00 | 0.00 | 0.00 | 46 | 1004.0 |
| 20260505211003 | 25 | 63 | 1.6 | 8.0 | 0.00 | 0.00 | 0.00 | 45 | 1004.0 |
| 20260505210003 | 26 | 74 | 3.2 | 14.5 | 0.00 | 0.00 | 0.00 | 40 | 1004.0 |
| 20260505205003 | 26 | 45 | 3.2 | 17.7 | 0.00 | 0.00 | 0.00 | 40 | 1003.8 |
| 20260505204003 | 26 | 59 | 3.2 | 12.9 | 0.00 | 0.00 | 0.00 | 39 | 1003.8 |
| 20260505203213 | 26 | 42 | 3.2 | 12.9 | 0.00 | 0.00 | 0.00 | 38 | 1003.8 |
| 20260505202003 | 27 | 80 | 1.6 | 8.0 | 0.00 | 0.00 | 0.00 | 38 | 1003.8 |
| 20260505201003 | 27 | 66 | 3.2 | 17.7 | 0.00 | 0.00 | 0.00 | 37 | 1003.5 |
| 20260505200003 | 28 | 118 | 3.2 | 16.1 | 0.00 | 0.00 | 0.00 | 35 | 1003.7 |
| 20260505195003 | 28 | 46 | 3.2 | 12.9 | 0.00 | 0.00 | 0.00 | 37 | 1003.7 |
| 20260505194003 | 29 | 357 | 6.4 | 19.3 | 0.00 | 0.00 | 0.00 | 35 | 1003.5 |
| 20260505193003 | 28 | 42 | 3.2 | 12.9 | 0.00 | 0.00 | 0.00 | 36 | 1003.7 |
| 20260505192003 | 28 | 28 | 6.4 | 29.0 | 0.00 | 0.00 | 0.00 | 38 | 1003.7 |
| 20260505191003 | 28 | 55 | 4.8 | 25.7 | 0.00 | 0.00 | 0.00 | 39 | 1004.0 |
| 20260505190003 | 28 | 6 | 6.4 | 14.5 | 0.00 | 0.00 | 0.00 | 38 | 1004.4 |
| 20260505185003 | 28 | 17 | 4.8 | 17.7 | 0.00 | 0.00 | 0.00 | 39 | 1004.6 |
| 20260505184003 | 28 | 350 | 6.4 | 17.7 | 0.00 | 0.00 | 0.00 | 38 | 1004.7 |
| 20260505183003 | 28 | 6 | 4.8 | 22.5 | 0.00 | 0.00 | 0.00 | 38 | 1004.7 |
| 20260505182003 | 28 | 40 | 3.2 | 16.1 | 0.00 | 0.00 | 0.00 | 38 | 1004.8 |
| 20260505181003 | 28 | 342 | 4.8 | 19.3 | 0.00 | 0.00 | 0.00 | 40 | 1005.0 |
| 20260505180004 | 28 | 15 | 4.8 | 14.5 | 0.00 | 0.00 | 0.00 | 39 | 1005.2 |
| 20260505175214 | 28 | 356 | 4.8 | 16.1 | 0.00 | 0.00 | 0.00 | 39 | 1005.3 |
| 20260505174003 | 27 | 10 | 4.8 | 16.1 | 0.00 | 0.00 | 0.00 | 42 | 1005.2 |
| 20260505173212 | 27 | 346 | 6.4 | 20.9 | 0.00 | 0.00 | 0.00 | 43 | 1005.5 |
| 20260505172003 | 27 | 17 | 4.8 | 19.3 | 0.00 | 0.00 | 0.00 | 44 | 1005.4 |
| 20260505171003 | 27 | 13 | 4.8 | 14.5 | 0.00 | 0.00 | 0.00 | 45 | 1005.5 |
| 20260505170003 | 27 | 351 | 6.4 | 22.5 | 0.00 | 0.00 | 0.00 | 44 | 1005.7 |
| 20260505165003 | 27 | 25 | 6.4 | 24.1 | 0.00 | 0.00 | 0.00 | 43 | 1005.7 |
| 20260505164003 | 26 | 37 | 6.4 | 17.7 | 0.00 | 0.00 | 0.00 | 45 | 1006.1 |
| 20260505163003 | 26 | 349 | 4.8 | 20.9 | 0.00 | 0.00 | 0.00 | 44 | 1006.2 |
| 20260505162003 | 26 | 2 | 8.0 | 22.5 | 0.00 | 0.00 | 0.00 | 44 | 1006.2 |
| 20260505161003 | 26 | 7 | 6.4 | 17.7 | 0.00 | 0.00 | 0.00 | 45 | 1006.2 |
| 20260505153003 | 26 | 37 | 4.8 | 12.9 | 0.00 | 0.00 | 0.00 | 47 | 1006.5 |
| 20260505152003 | 25 | 348 | 4.8 | 14.5 | 0.00 | 0.00 | 0.00 | 47 | 1006.5 |
| 20260505151003 | 25 | 3 | 4.8 | 22.5 | 0.00 | 0.00 | 0.00 | 48 | 1006.6 |
| 20260505125003 | 17 | 336 | 0.0 | 3.2 | 0.00 | 0.00 | 0.00 | 71 | 1007.2 |
| 20260505124003 | 16 | 0 | 0.0 | 0.0 | 0.00 | 0.00 | 0.00 | 78 | 1007.2 |
| 20260505123003 | 15 | 0 | 0.0 | 0.0 | 0.00 | 0.00 | 0.00 | 83 | 1007.2 |
| 20260505122003 | 15 | 0 | 0.0 | 0.0 | 0.00 | 0.00 | 0.00 | 85 | 1007.3 |
| 20260505121003 | 13 | 0 | 0.0 | 0.0 | 0.00 | 0.00 | 0.00 | 89 | 1007.3 |
| 20260505120214 | 13 | 0 | 0.0 | 0.0 | 0.00 | 0.00 | 0.00 | 91 | 1007.3 |
| 20260505115003 | 12 | 0 | 0.0 | 0.0 | 0.00 | 0.00 | 0.00 | 92 | 1007.3 |
| 20260505114003 | 11 | 0 | 0.0 | 0.0 | 0.00 | 0.00 | 0.00 | 93 | 1007.1 |
| 20260505113003 | 10 | 0 | 0.0 | 0.0 | 0.00 | 0.00 | 0.00 | 93 | 1007.1 |
| 20260505112214 | 10 | 0 | 0.0 | 0.0 | 0.00 | 0.00 | 0.00 | 93 | 1007.1 |
| 20260505111003 | 9 | 0 | 0.0 | 0.0 | 0.00 | 0.00 | 0.00 | 93 | 1006.9 |
| 20260505102003 | 9 | 0 | 0.0 | 0.0 | 0.00 | 0.00 | 0.00 | 91 | 1006.6 |
| 20260505101003 | 9 | 0 | 0.0 | 0.0 | 0.00 | 0.00 | 0.00 | 91 | 1006.6 |
| 20260505100003 | 9 | 0 | 0.0 | 0.0 | 0.00 | 0.00 | 0.00 | 91 | 1006.5 |
| 20260505095003 | 10 | 0 | 0.0 | 0.0 | 0.00 | 0.00 | 0.00 | 90 | 1006.5 |
| 20260505094003 | 10 | 0 | 0.0 | 0.0 | 0.00 | 0.00 | 0.00 | 90 | 1006.4 |
| 20260505093004 | 10 | 0 | 0.0 | 0.0 | 0.00 | 0.00 | 0.00 | 90 | 1006.3 |
| 20260505092003 | 10 | 0 | 0.0 | 0.0 | 0.00 | 0.00 | 0.00 | 89 | 1006.4 |
| 20260505091003 | 10 | 0 | 0.0 | 0.0 | 0.00 | 0.00 | 0.00 | 89 | 1006.4 |
| 20260505090003 | 10 | 0 | 0.0 | 0.0 | 0.00 | 0.00 | 0.00 | 88 | 1006.4 |
| 20260505085003 | 11 | 0 | 0.0 | 0.0 | 0.00 | 0.00 | 0.00 | 88 | 1006.4 |
| 20260505084213 | 11 | 0 | 0.0 | 0.0 | 0.00 | 0.00 | 0.00 | 88 | 1006.3 |
| 20260505083003 | 11 | 0 | 0.0 | 0.0 | 0.00 | 0.00 | 0.00 | 87 | 1006.3 |
| 20260505082003 | 11 | 0 | 0.0 | 0.0 | 0.00 | 0.00 | 0.00 | 87 | 1006.3 |
| 20260505081213 | 11 | 0 | 0.0 | 0.0 | 0.00 | 0.00 | 0.00 | 87 | 1006.4 |
| 20260505080003 | 11 | 0 | 0.0 | 0.0 | 0.00 | 0.00 | 0.00 | 86 | 1006.3 |
| 20260505075003 | 11 | 0 | 0.0 | 0.0 | 0.00 | 0.00 | 0.00 | 86 | 1006.1 |
| 20260505074003 | 11 | 0 | 0.0 | 0.0 | 0.00 | 0.00 | 0.00 | 85 | 1006.1 |
| 20260505073003 | 12 | 0 | 0.0 | 0.0 | 0.00 | 0.00 | 0.00 | 85 | 1006.1 |
| 20260505072003 | 12 | 0 | 0.0 | 0.0 | 0.00 | 0.00 | 0.00 | 84 | 1006.1 |
| 20260505071003 | 12 | 0 | 0.0 | 0.0 | 0.00 | 0.00 | 0.00 | 83 | 1006.1 |
| 20260505070214 | 12 | 0 | 0.0 | 0.0 | 0.00 | 0.00 | 0.00 | 82 | 1006.1 |
| 20260505065003 | 12 | 0 | 0.0 | 0.0 | 0.00 | 0.00 | 0.00 | 81 | 1006.2 |
| 20260505064214 | 12 | 0 | 0.0 | 0.0 | 0.00 | 0.00 | 0.00 | 81 | 1006.3 |
| 20260505063214 | 13 | 0 | 0.0 | 0.0 | 0.00 | 0.00 | 0.00 | 80 | 1006.3 |
| 20260505062003 | 13 | 0 | 0.0 | 0.0 | 0.00 | 0.00 | 0.00 | 80 | 1006.4 |
| 20260505061003 | 13 | 0 | 0.0 | 0.0 | 0.00 | 0.00 | 0.00 | 78 | 1006.5 |
| 20260505060003 | 13 | 0 | 0.0 | 0.0 | 0.00 | 0.00 | 0.00 | 77 | 1006.5 |
| 20260505055003 | 13 | 0 | 0.0 | 0.0 | 0.00 | 0.00 | 0.00 | 77 | 1006.6 |
| 20260505054003 | 13 | 0 | 0.0 | 0.0 | 0.00 | 0.00 | 0.00 | 77 | 1006.6 |
| 20260505053003 | 13 | 0 | 0.0 | 0.0 | 0.00 | 0.00 | 0.00 | 76 | 1006.5 |
| 20260505052003 | 13 | 0 | 0.0 | 0.0 | 0.00 | 0.00 | 0.00 | 75 | 1006.5 |
| 20260505051003 | 13 | 0 | 0.0 | 0.0 | 0.00 | 0.00 | 0.00 | 74 | 1006.6 |
| 20260505041003 | 14 | 0 | 0.0 | 0.0 | 0.00 | 0.00 | 0.00 | 70 | 1006.2 |
| 20260505040004 | 14 | 0 | 0.0 | 0.0 | 0.00 | 0.00 | 0.00 | 69 | 1006.0 |
| 20260505035003 | 15 | 0 | 0.0 | 0.0 | 0.00 | 0.00 | 0.00 | 67 | 1006.0 |